Charlotte, NC

1:10 PM EDT on April 25, 2017 (GMT -0400)
Charlotte-Douglas International

Weather History for KCLT - January, 2003

Change the Weather History Date:

Monday, January 13, 2003

  Actual Average Record
Temperature  
Mean Temperature 36 °F 40 °F  
Max Temperature 44 °F 50 °F 78 °F (2017)
Min Temperature 27 °F 29 °F 3 °F (1895)
Degree Days  
Heating Degree Days 30 25  
Month to date heating degree days 325  
Since 1 July heating degree days 1662  
Cooling Degree Days 0 0  
Month to date cooling degree days 0  
Year to date cooling degree days 0  
Moisture  
Dew Point 12 °F    
Average Humidity 40    
Maximum Humidity 64    
Minimum Humidity 26    
Precipitation  
Precipitation 0.00 in 0.12 in 1.68 in (1948)
Month to date precipitation 1.47  
Year to date precipitation 1.47  
Snow  
Snow 0.00 in 0.10 in 4.70 in (1912)
Month to date snowfall 0.8  
Since 1 July snowfall 1.2  
Snow Depth -    
Sea Level Pressure  
Sea Level Pressure 30.19 in    
Wind  
Wind Speed 3 mph (SW)    
Max Wind Speed 7 mph    
Max Gust Speed -    
Visibility 10 miles    
Events      
T = Trace of Precipitation, MM = Missing Value Source: NWS Daily Summary

Daily Weather History Graph

Daily Weather History Graph

Search for Another Location

Airport or City:

Trip Planner

Search our weather history database for the weather conditions in past years. The results will help you decide how hot, cold, wet, or windy it might be!

Date:

Astronomy

Jan. 13, 2003 Rise Set
Actual Time 7:32 AM EST 5:32 PM EST
Civil Twilight 7:04 AM EST 6:00 PM EST
Nautical Twilight 6:33 AM EST 6:31 PM EST
Astronomical Twilight 6:02 AM EST 7:02 PM EST
Moon 1:41 PM EST (1/13) 3:07 AM EST (1/13)
Length of Visible Light 10h 55m
Length of Day
10h 00m
Waxing Gibbous, 78% of the Moon is Illuminated
Jan 13
Waxing Gibbous
Jan 18
Full
Jan 25
Last Quarter
Feb 1
New
Feb 9
First Quarter

Hourly Weather History & Observations

Time (EST) Temp. Windchill Dew Point Humidity Pressure Visibility Wind Dir Wind Speed Gust Speed Precip Events Conditions
12:51 AM 28.9 °F 25.2 °F 10.9 °F 47% 30.33 in 10.0 mi South 3.5 mph - N/A   Overcast
1:51 AM 28.0 °F 22.8 °F 9.0 °F 45% 30.32 in 10.0 mi South 4.6 mph - N/A   Overcast
2:51 AM 27.0 °F - 12.0 °F 53% 30.30 in 10.0 mi Calm Calm - N/A   Overcast
3:51 AM 28.9 °F - 12.9 °F 51% 30.28 in 10.0 mi Calm Calm - N/A   Overcast
4:51 AM 28.9 °F - 14.0 °F 54% 30.26 in 10.0 mi Calm Calm - N/A   Overcast
5:51 AM 28.0 °F - 10.9 °F 49% 30.26 in 10.0 mi Calm Calm - N/A   Overcast
6:51 AM 30.0 °F 25.2 °F 10.0 °F 43% 30.25 in 10.0 mi SSW 4.6 mph - N/A   Mostly Cloudy
7:51 AM 30.9 °F 27.5 °F 10.9 °F 43% 30.25 in 10.0 mi SSW 3.5 mph - N/A   Mostly Cloudy
8:51 AM 32.0 °F 27.5 °F 12.9 °F 45% 30.25 in 10.0 mi South 4.6 mph - N/A   Mostly Cloudy
9:51 AM 35.1 °F 31.0 °F 12.0 °F 39% 30.24 in 10.0 mi Variable 4.6 mph - N/A   Mostly Cloudy
10:51 AM 36.0 °F 30.3 °F 12.0 °F 37% 30.22 in 10.0 mi SW 6.9 mph - N/A   Mostly Cloudy
11:51 AM 39.9 °F 35.1 °F 10.0 °F 29% 30.20 in 10.0 mi SW 6.9 mph - N/A   Mostly Cloudy
12:51 PM 41.0 °F 36.4 °F 10.9 °F 29% 30.15 in 10.0 mi WSW 6.9 mph - N/A   Overcast
1:51 PM 42.1 °F 39.2 °F 10.9 °F 28% 30.14 in 10.0 mi Variable 4.6 mph - N/A   Overcast
2:51 PM 43.0 °F 40.3 °F 10.0 °F 26% 30.12 in 10.0 mi Variable 4.6 mph - N/A   Overcast
3:51 PM 43.0 °F 38.8 °F 14.0 °F 31% 30.09 in 10.0 mi SSW 6.9 mph - 0.00 in   Mostly Cloudy
4:51 PM 44.1 °F 41.5 °F 12.0 °F 27% 30.10 in 10.0 mi SSW 4.6 mph - N/A   Mostly Cloudy
5:51 PM 43.0 °F - 10.9 °F 27% 30.12 in 10.0 mi Calm Calm - N/A   Mostly Cloudy
6:51 PM 41.0 °F - 12.0 °F 31% 30.13 in 10.0 mi Calm Calm - N/A   Mostly Cloudy
7:51 PM 39.0 °F 35.7 °F 14.0 °F 36% 30.13 in 10.0 mi Variable 4.6 mph - N/A   Scattered Clouds
8:51 PM 37.9 °F 34.4 °F 14.0 °F 38% 30.12 in 10.0 mi WSW 4.6 mph - N/A   Partly Cloudy
9:51 PM 37.0 °F 33.3 °F 14.0 °F 39% 30.12 in 10.0 mi West 4.6 mph - N/A   Clear
10:51 PM 33.1 °F 28.7 °F 15.1 °F 48% 30.13 in 10.0 mi NW 4.6 mph - N/A   Clear
11:51 PM 28.9 °F 23.9 °F 18.0 °F 64% 30.12 in 10.0 mi NW 4.6 mph - N/A   Clear